TimeMST,TemperatureF,Dew PointF,Humidity,Sea Level PressureIn,VisibilityMPH,Wind Direction,Wind SpeedMPH,Gust SpeedMPH,PrecipitationIn,Events,Conditions,WindDirDegrees,DateUTC
12:15 AM,28.4,21.2,74,30.22,10.0,SSE,11.5,-,N/A,,Clear,160,2012-11-14 07:15:00
12:35 AM,26.6,19.4,74,30.22,10.0,SSE,9.2,-,N/A,,Clear,150,2012-11-14 07:35:00
12:55 AM,26.6,21.2,80,30.21,10.0,SSE,10.4,-,N/A,,Clear,150,2012-11-14 07:55:00
1:15 AM,28.4,21.2,74,30.21,10.0,South,13.8,-,N/A,,Clear,180,2012-11-14 08:15:00
1:35 AM,30.2,21.2,69,30.21,10.0,South,10.4,18.4,N/A,,Clear,180,2012-11-14 08:35:00
1:55 AM,32.0,21.2,64,30.21,10.0,SW,18.4,27.6,N/A,,Clear,220,2012-11-14 08:55:00
2:15 AM,32.0,21.2,64,30.22,10.0,SSW,9.2,-,N/A,,Clear,200,2012-11-14 09:15:00
2:35 AM,32.0,21.2,64,30.22,10.0,SSW,9.2,-,N/A,,Scattered Clouds,210,2012-11-14 09:35:00
2:55 AM,30.2,21.2,69,30.21,10.0,South,4.6,-,N/A,,Clear,190,2012-11-14 09:55:00
3:15 AM,30.2,21.2,69,30.20,10.0,SSE,6.9,-,N/A,,Clear,150,2012-11-14 10:15:00
3:35 AM,30.2,21.2,69,30.20,10.0,South,6.9,-,N/A,,Clear,170,2012-11-14 10:35:00
3:55 AM,28.4,21.2,74,30.20,10.0,SSE,6.9,-,N/A,,Clear,160,2012-11-14 10:55:00
4:15 AM,30.2,21.2,69,30.19,10.0,South,13.8,-,N/A,,Clear,190,2012-11-14 11:15:00
4:35 AM,30.2,19.4,64,30.18,10.0,SSW,19.6,-,N/A,,Clear,210,2012-11-14 11:35:00
4:55 AM,30.2,21.2,69,30.18,10.0,SSW,25.3,29.9,N/A,,Clear,210,2012-11-14 11:55:00
5:15 AM,32.0,21.2,64,30.18,10.0,SSW,21.9,29.9,N/A,,Clear,200,2012-11-14 12:15:00
5:35 AM,28.4,21.2,74,30.18,10.0,South,15.0,21.9,N/A,,Clear,180,2012-11-14 12:35:00
5:55 AM,28.4,21.2,74,30.18,10.0,South,13.8,-,N/A,,Clear,170,2012-11-14 12:55:00
6:15 AM,28.4,21.2,74,30.18,10.0,South,12.7,-,N/A,,Clear,170,2012-11-14 13:15:00
6:35 AM,28.4,21.2,74,30.18,10.0,South,12.7,21.9,N/A,,Clear,190,2012-11-14 13:35:00
6:55 AM,28.4,21.2,74,30.18,10.0,South,13.8,20.7,N/A,,Clear,170,2012-11-14 13:55:00
7:15 AM,30.2,21.2,69,30.18,10.0,South,13.8,20.7,N/A,,Clear,170,2012-11-14 14:15:00
7:35 AM,28.4,21.2,74,30.18,10.0,SSE,13.8,-,N/A,,Clear,160,2012-11-14 14:35:00
7:55 AM,28.4,21.2,74,30.19,10.0,SSE,12.7,-,N/A,,Clear,160,2012-11-14 14:55:00
8:15 AM,26.6,21.2,80,30.19,10.0,South,15.0,18.4,N/A,,Clear,180,2012-11-14 15:15:00
8:35 AM,28.4,21.2,74,30.20,10.0,South,12.7,-,N/A,,Clear,180,2012-11-14 15:35:00
8:55 AM,30.2,21.2,69,30.19,10.0,South,15.0,-,N/A,,Clear,180,2012-11-14 15:55:00
9:15 AM,30.2,21.2,69,30.19,10.0,South,12.7,-,N/A,,Clear,170,2012-11-14 16:15:00
9:35 AM,30.2,21.2,69,30.19,10.0,SSE,13.8,-,N/A,,Clear,160,2012-11-14 16:35:00
9:55 AM,26.6,23.0,86,30.19,10.0,SSE,9.2,16.1,N/A,,Clear,150,2012-11-14 16:55:00
10:15 AM,28.4,21.2,74,30.18,10.0,SSE,18.4,23.0,N/A,,Clear,160,2012-11-14 17:15:00
10:35 AM,30.2,21.2,69,30.19,10.0,SSE,16.1,-,N/A,,Clear,160,2012-11-14 17:35:00
10:55 AM,28.4,23.0,80,30.19,10.0,SSE,10.4,-,N/A,,Scattered Clouds,150,2012-11-14 17:55:00
11:15 AM,30.2,23.0,75,30.18,10.0,SSE,13.8,-,N/A,,Mostly Cloudy,160,2012-11-14 18:15:00
11:35 AM,30.2,23.0,75,30.18,10.0,SSE,11.5,-,N/A,,Mostly Cloudy,150,2012-11-14 18:35:00
11:55 AM,30.2,23.0,75,30.18,10.0,SSE,12.7,20.7,N/A,,Scattered Clouds,160,2012-11-14 18:55:00
12:15 PM,32.0,23.0,69,30.16,10.0,SE,12.7,18.4,N/A,,Clear,140,2012-11-14 19:15:00
12:35 PM,30.2,23.0,75,30.16,10.0,South,16.1,-,N/A,,Scattered Clouds,170,2012-11-14 19:35:00
12:55 PM,32.0,23.0,69,30.16,10.0,SSE,8.1,-,N/A,,Overcast,160,2012-11-14 19:55:00
1:15 PM,32.0,24.8,75,30.15,10.0,South,15.0,-,N/A,,Overcast,190,2012-11-14 20:15:00
1:35 PM,33.8,24.8,70,30.15,10.0,South,15.0,-,N/A,,Overcast,190,2012-11-14 20:35:00
1:55 PM,33.8,26.6,75,30.15,10.0,South,15.0,-,N/A,,Overcast,190,2012-11-14 20:55:00
2:15 PM,33.8,23.0,65,30.16,10.0,South,15.0,-,N/A,,Overcast,190,2012-11-14 21:15:00
2:35 PM,33.8,23.0,65,30.16,10.0,South,9.2,-,N/A,,Mostly Cloudy,180,2012-11-14 21:35:00
2:55 PM,33.8,23.0,65,30.16,10.0,South,11.5,-,N/A,,Scattered Clouds,180,2012-11-14 21:55:00
3:15 PM,33.8,24.8,70,30.16,10.0,South,9.2,-,N/A,,Scattered Clouds,190,2012-11-14 22:15:00
3:35 PM,33.8,24.8,70,30.17,10.0,South,8.1,-,N/A,,Mostly Cloudy,170,2012-11-14 22:35:00
3:55 PM,33.8,24.8,70,30.18,10.0,SSW,8.1,-,N/A,,Overcast,200,2012-11-14 22:55:00
4:15 PM,33.8,24.8,70,30.18,10.0,SW,8.1,-,N/A,,Overcast,230,2012-11-14 23:15:00
4:35 PM,33.8,26.6,75,30.18,10.0,SSW,9.2,-,N/A,,Overcast,210,2012-11-14 23:35:00
4:55 PM,33.8,24.8,70,30.19,10.0,West,6.9,-,N/A,,Overcast,280,2012-11-14 23:55:00
5:15 PM,32.0,23.0,69,30.20,10.0,West,8.1,-,N/A,,Overcast,280,2012-11-15 00:15:00
5:35 PM,33.8,21.2,60,30.20,10.0,WNW,6.9,-,N/A,,Overcast,300,2012-11-15 00:35:00
5:55 PM,33.8,19.4,56,30.20,10.0,NW,6.9,-,N/A,,Overcast,310,2012-11-15 00:55:00
6:15 PM,33.8,19.4,56,30.21,10.0,NW,6.9,-,N/A,,Scattered Clouds,320,2012-11-15 01:15:00
6:35 PM,33.8,19.4,56,30.21,10.0,NW,6.9,-,N/A,,Overcast,310,2012-11-15 01:35:00
6:55 PM,32.0,19.4,60,30.22,10.0,NW,6.9,-,N/A,,Overcast,310,2012-11-15 01:55:00
7:15 PM,32.0,21.2,64,30.22,10.0,NW,10.4,-,N/A,,Overcast,310,2012-11-15 02:15:00
7:55 PM,32.0,19.4,60,30.24,10.0,NW,12.7,-,N/A,,Overcast,310,2012-11-15 02:55:00
8:15 PM,32.0,19.4,60,30.25,10.0,NW,10.4,-,N/A,,Overcast,310,2012-11-15 03:15:00
8:35 PM,32.0,17.6,55,30.26,10.0,NW,11.5,-,N/A,,Overcast,320,2012-11-15 03:35:00
8:55 PM,32.0,19.4,60,30.26,10.0,NW,11.5,-,N/A,,Overcast,320,2012-11-15 03:55:00
9:15 PM,32.0,19.4,60,30.27,10.0,NW,15.0,-,N/A,,Overcast,320,2012-11-15 04:15:00
9:35 PM,30.2,19.4,64,30.28,10.0,NW,16.1,-,N/A,,Overcast,320,2012-11-15 04:35:00
9:55 PM,32.0,21.2,64,30.28,10.0,NW,17.3,-,N/A,,Overcast,310,2012-11-15 04:55:00
10:15 PM,32.0,21.2,64,30.28,10.0,NW,19.6,-,N/A,,Overcast,310,2012-11-15 05:15:00
10:35 PM,30.2,23.0,75,30.29,10.0,NW,16.1,-,N/A,,Overcast,310,2012-11-15 05:35:00
10:55 PM,30.2,23.0,75,30.29,10.0,NW,13.8,-,N/A,,Overcast,310,2012-11-15 05:55:00
11:15 PM,30.2,23.0,75,30.30,10.0,WNW,17.3,-,N/A,,Overcast,300,2012-11-15 06:15:00
11:35 PM,30.2,23.0,75,30.30,10.0,NW,16.1,-,N/A,,Overcast,310,2012-11-15 06:35:00
11:55 PM,30.2,23.0,75,30.30,10.0,NW,13.8,-,N/A,,Overcast,310,2012-11-15 06:55:00